Miscellaneous Local Product
Issued by NWS North Platte, NE

Home | Current Version | Previous Version | Graphics & Text | Print | Product List | Glossary On
Versions: 1 2 3 4 5 6 7 8 9 10 11 12 13 14 15 16 17 18 19 20 21 22 23 24 25 26 27 28 29 30 31 32 33 34 35 36 37 38 39 40 41 42 43 44 45 46 47 48 49 50
753
AXUS43 KLBF 152110
MISLBF


WESTERN AND NORTH CENTRAL NEBRASKA HOURLY WEATHER ROUNDUP
NATIONAL WEATHER SERVICE NORTH PLATTE NE
300 PM CST FRI DEC 15 2017

NOTE: "FAIR" INDICATES FEW OR NO CLOUDS BELOW 12,000 FEET WITH NO
SIGNIFICANT WEATHER AND/OR OBSTRUCTIONS TO VISIBILITY.

NOTE: STATIONS NOT REPORTING VARIABLES SUCH AS SKY/WEATHER OR
PRESSURE ARE PROVIDED BY RAWS AND APRS NETWORKS AND ARE NOT UNDER
NATIONAL WEATHER SERVICE QUALITY CONTROL.

...OBSERVATIONS IN AND NEAR THE EASTERN PANHANDLE OF NEBRASKA...

CITY           SKY/WX    TMP DP  RH WIND       PRES   REMARKS
PINE RIDGE     CLOUDY    53  19  26 W13G20    29.74F
GORDON         FAIR      56  17  21 W13G20    29.74F
CHADRON        CLOUDY    58  14  17 W15       29.75F
ALLIANCE       CLOUDY    55  14  19 W18       29.80F
SIDNEY         CLOUDY    60  12  15 NW20G30   29.86F
CRESCENT LAKE    N/A     55  14  19 W14G22      N/A
$$

...OBSERVATIONS IN NORTHERN NEBRASKA AND FAR SOUTHERN SOUTH DAKOTA...

CITY           SKY/WX    TMP DP  RH WIND       PRES   REMARKS
WINNER         FAIR      48  32  53 SW10      29.71F
VALENTINE      SUNNY     52  28  39 W12       29.74F
THEDFORD       SUNNY     57  21  24 W13       29.78F
AINSWORTH      SUNNY     50  32  50 SW9       29.75F
O`NEILL        SUNNY     46  29  52 SW10      29.77F
ORD            SUNNY     48  27  44 SW12      29.79F
BROKEN BOW     SUNNY     51  26  37 SW12      29.79F
VALENTINE NWR    N/A     51  25  36 W10         N/A
HALSEY           N/A     57  18  21 W8G16       N/A
BUTTE            N/A     44  30  59 SW8         N/A
CHAMBERS         N/A     45  27  49 W3          N/A
EWING            N/A     46  30  53 SW10        N/A
$$

...OBSERVATIONS IN SOUTHWEST NEBRASKA AND FAR NORTHEAST COLORADO...

CITY           SKY/WX    TMP DP  RH WIND       PRES   REMARKS
WRAY           FAIR      63   3   9 NW15      29.89F
HOLYOKE        FAIR      61  10  13 W12       29.87F
IMPERIAL       SUNNY     60  11  14 W8        29.86F
OGALLALA       SUNNY     60  12  15 W14       29.83F
NORTH PLATTE   SUNNY     56  15  20 W12       29.82F
MCCOOK         SUNNY     59  13  16 W10G23    29.87F
LEXINGTON      SUNNY     55  19  24 SW14      29.85F
STAPLETON        N/A     56  21  25 CALM        N/A
GOTHENBURG       N/A     56  16  20 W7          N/A
CALLAWAY         N/A     52  24  33 SW12        N/A
$$

...OBSERVATIONS IN CENTRAL LINCOLN COUNTY AREA...

CITY           SKY/WX    TMP DP  RH WIND       PRES   REMARKS
N.P. AIRPORT   SUNNY     56  15  20 W12       29.82F
N.P. DOWNTOWN    N/A     54  20  26 SW3         N/A
N.P. SOUTHEAST   N/A     54  18  24 W7G15       N/A
N.P. HILLCREST   N/A     54  19  25 W12         N/A
$$

...SOME OBSERVATIONS FROM AROUND THE REGION...

CITY           SKY/WX    TMP DP  RH WIND       PRES   REMARKS
DENVER         MOSUNNY   62   2   9 W13       29.90F
GRAND JUNCTION SUNNY     43  11  27 SE7       30.22F
LARAMIE        SUNNY     39  20  46 SW20      29.98F WCI  29
CHEYENNE       SUNNY     52  11  19 W26G32    29.93R
CASPER         CLOUDY    40  20  44 SW25G36   29.90F WCI  29
BISMARCK       CLOUDY    44  25  47 W7        29.58F
RAPID CITY     CLOUDY    56  16  20 E3        29.70F
PIERRE         CLOUDY    50  26  39 W14       29.64F
SIOUX FALLS    PTSUNNY   40  26  57 SW7       29.75F
OMAHA          MOSUNNY   48  24  39 SW17G24   29.86F
GRAND ISLAND   SUNNY     50  27  40 W20       29.85S
SCOTTSBLUFF    CLOUDY    57  14  18 W17G24    29.83F
KANSAS CITY    MOSUNNY   46  21  37 SW21      30.02F
HILL CITY      SUNNY     59  17  19 SW12      29.92F
WICHITA        SUNNY     51  26  37 SW15      30.07F
DODGE CITY     SUNNY     55  19  24 SW13      30.02F
OKLAHOMA CITY  SUNNY     50  21  32 W8        30.16F
DALLAS         CLOUDY    56  22  26 NW6       30.21F
AMARILLO       SUNNY     54  19  25 SW20      30.10F
$$




USA.gov is the U.S. government's official web portal to all federal, state and local government web resources and services.